Time,TemperatureF,DewpointF,PressureIn,WindDirection,WindDirectionDegrees,WindSpeedMPH,WindSpeedGustMPH,Humidity,HourlyPrecipIn,Conditions,Clouds,dailyrainin,SoftwareType,DateUTC
2013-02-14 00:04:00,22.4,10.0,30.34,SSW,200,3.0,3.0,60,0.00,,,0.00,weatherlink.com 1.10,2013-02-14 07:04:00,
2013-02-14 00:19:00,22.4,11.0,30.35,SSW,205,2.0,3.0,61,0.00,,,0.00,weatherlink.com 1.10,2013-02-14 07:19:00,
2013-02-14 00:35:00,22.9,11.0,30.35,SSW,206,2.0,3.0,61,0.00,,,0.00,weatherlink.com 1.10,2013-02-14 07:35:00,
2013-02-14 00:50:00,22.4,11.0,30.35,West,278,2.0,4.0,62,0.00,,,0.00,weatherlink.com 1.10,2013-02-14 07:50:00,
2013-02-14 01:05:00,22.9,12.0,30.35,SSW,211,5.0,8.0,64,0.00,,,0.00,weatherlink.com 1.10,2013-02-14 08:05:00,
2013-02-14 01:20:00,24.8,13.0,30.35,SW,234,5.0,9.0,60,0.00,,,0.00,weatherlink.com 1.10,2013-02-14 08:20:00,
2013-02-14 01:35:00,24.8,13.0,30.34,SSW,212,6.0,8.0,60,0.00,,,0.00,weatherlink.com 1.10,2013-02-14 08:35:00,
2013-02-14 01:50:00,25.3,13.0,30.35,SW,218,6.0,9.0,59,0.00,,,0.00,weatherlink.com 1.10,2013-02-14 08:50:00,
2013-02-14 02:05:00,23.9,12.0,30.35,SW,220,3.0,7.0,61,0.00,,,0.00,weatherlink.com 1.10,2013-02-14 09:05:00,
2013-02-14 02:20:00,22.7,12.0,30.37,WSW,255,2.0,8.0,64,0.00,,,0.00,weatherlink.com 1.10,2013-02-14 09:20:00,
2013-02-14 02:35:00,21.9,12.0,30.37,WSW,256,3.0,4.0,66,0.00,,,0.00,weatherlink.com 1.10,2013-02-14 09:35:00,
2013-02-14 02:50:00,21.4,12.0,30.37,WSW,256,3.0,3.0,67,0.00,,,0.00,weatherlink.com 1.10,2013-02-14 09:50:00,
2013-02-14 03:05:00,22.9,13.0,30.37,SW,218,3.0,6.0,65,0.00,,,0.00,weatherlink.com 1.10,2013-02-14 10:05:00,
2013-02-14 03:20:00,23.3,13.0,30.37,SSW,213,1.0,2.0,64,0.00,,,0.00,weatherlink.com 1.10,2013-02-14 10:20:00,
2013-02-14 03:35:00,22.4,13.0,30.37,East,90,1.0,6.0,67,0.00,,,0.00,weatherlink.com 1.10,2013-02-14 10:35:00,
2013-02-14 03:50:00,20.6,12.0,30.37,WSW,237,0.0,3.0,69,0.00,,,0.00,weatherlink.com 1.10,2013-02-14 10:50:00,
2013-02-14 04:05:00,18.0,10.0,30.37,WSW,253,2.0,3.0,71,0.00,,,0.00,weatherlink.com 1.10,2013-02-14 11:05:00,
2013-02-14 04:20:00,16.4,9.0,30.38,WSW,253,2.0,4.0,74,0.00,,,0.00,weatherlink.com 1.10,2013-02-14 11:20:00,
2013-02-14 04:35:00,15.9,9.0,30.39,WSW,253,3.0,4.0,75,0.00,,,0.00,weatherlink.com 1.10,2013-02-14 11:35:00,
2013-02-14 04:50:00,16.7,10.0,30.40,WSW,253,3.0,3.0,75,0.00,,,0.00,weatherlink.com 1.10,2013-02-14 11:50:00,
2013-02-14 05:05:00,18.1,11.0,30.41,SW,223,2.0,6.0,72,0.00,,,0.00,weatherlink.com 1.10,2013-02-14 12:05:00,
2013-02-14 05:20:00,16.9,8.0,30.42,NW,312,2.0,7.0,69,0.00,,,0.00,weatherlink.com 1.10,2013-02-14 12:20:00,
2013-02-14 05:35:00,15.7,8.0,30.44,NW,312,2.0,3.0,72,0.00,,,0.00,weatherlink.com 1.10,2013-02-14 12:35:00,
2013-02-14 05:51:00,15.6,8.0,30.45,NW,312,2.0,4.0,72,0.00,,,0.00,weatherlink.com 1.10,2013-02-14 12:51:00,
2013-02-14 06:05:00,15.4,8.0,30.45,NW,311,3.0,3.0,73,0.00,,,0.00,weatherlink.com 1.10,2013-02-14 13:05:00,
2013-02-14 06:20:00,13.8,7.0,30.46,West,271,2.0,4.0,73,0.00,,,0.00,weatherlink.com 1.10,2013-02-14 13:20:00,
2013-02-14 06:36:00,12.9,6.0,30.46,SW,225,0.0,6.0,74,0.00,,,0.00,weatherlink.com 1.10,2013-02-14 13:36:00,
2013-02-14 06:50:00,13.3,6.0,30.47,WNW,285,2.0,5.0,74,0.00,,,0.00,weatherlink.com 1.10,2013-02-14 13:50:00,
2013-02-14 07:06:00,14.0,7.0,30.48,WSW,248,1.0,5.0,74,0.00,,,0.00,weatherlink.com 1.10,2013-02-14 14:06:00,
2013-02-14 07:21:00,12.4,5.0,30.49,WSW,249,2.0,4.0,73,0.00,,,0.00,weatherlink.com 1.10,2013-02-14 14:21:00,
2013-02-14 07:36:00,11.2,4.0,30.50,WSW,248,2.0,4.0,74,0.00,,,0.00,weatherlink.com 1.10,2013-02-14 14:36:00,
2013-02-14 07:51:00,13.1,7.0,30.54,West,259,3.0,7.0,76,0.00,,,0.00,weatherlink.com 1.10,2013-02-14 14:51:00,
2013-02-14 08:06:00,16.1,9.0,30.56,SSW,212,3.0,4.0,74,0.00,,,0.00,weatherlink.com 1.10,2013-02-14 15:06:00,
2013-02-14 08:21:00,19.1,14.0,30.57,South,176,5.0,9.0,81,0.00,,,0.00,weatherlink.com 1.10,2013-02-14 15:21:00,
2013-02-14 08:36:00,20.0,15.0,30.59,SW,233,1.0,6.0,79,0.00,,,0.00,weatherlink.com 1.10,2013-02-14 15:36:00,
2013-02-14 08:51:00,20.6,15.0,30.59,SSE,164,4.0,9.0,78,0.00,,,0.00,weatherlink.com 1.10,2013-02-14 15:51:00,
2013-02-14 09:06:00,20.8,15.0,30.60,South,181,2.0,6.0,79,0.00,,,0.00,weatherlink.com 1.10,2013-02-14 16:06:00,
2013-02-14 09:21:00,21.3,16.0,30.60,SSE,159,3.0,11.0,79,0.00,,,0.00,weatherlink.com 1.10,2013-02-14 16:21:00,
2013-02-14 09:36:00,21.1,15.0,30.61,SSW,193,3.0,11.0,78,0.00,,,0.00,weatherlink.com 1.10,2013-02-14 16:36:00,
2013-02-14 09:51:00,21.3,15.0,30.62,SSW,197,4.0,9.0,76,0.00,,,0.00,weatherlink.com 1.10,2013-02-14 16:51:00,
2013-02-14 10:06:00,21.0,14.0,30.63,South,176,8.0,12.0,75,0.00,,,0.00,weatherlink.com 1.10,2013-02-14 17:06:00,
2013-02-14 10:21:00,21.1,15.0,30.63,SSE,156,9.0,11.0,76,0.00,,,0.00,weatherlink.com 1.10,2013-02-14 17:21:00,
2013-02-14 10:36:00,21.6,15.0,30.64,South,186,5.0,9.0,74,0.00,,,0.00,weatherlink.com 1.10,2013-02-14 17:36:00,
2013-02-14 10:51:00,22.2,14.0,30.64,SSE,147,2.0,6.0,72,0.00,,,0.00,weatherlink.com 1.10,2013-02-14 17:51:00,
2013-02-14 11:06:00,22.4,15.0,30.64,SSE,159,4.0,8.0,74,0.00,,,0.00,weatherlink.com 1.10,2013-02-14 18:06:00,
2013-02-14 11:21:00,23.2,15.0,30.63,ESE,123,9.0,10.0,72,0.00,,,0.00,weatherlink.com 1.10,2013-02-14 18:21:00,
2013-02-14 11:36:00,23.8,16.0,30.62,ESE,105,9.0,11.0,71,0.00,,,0.00,weatherlink.com 1.10,2013-02-14 18:36:00,
2013-02-14 11:51:00,22.9,16.0,30.63,ESE,114,8.0,15.0,75,0.00,,,0.00,weatherlink.com 1.10,2013-02-14 18:51:00,
2013-02-14 12:06:00,22.5,15.0,30.63,ESE,109,7.0,12.0,74,0.00,,,0.00,weatherlink.com 1.10,2013-02-14 19:06:00,
2013-02-14 12:21:00,22.4,15.0,30.63,East,95,5.0,11.0,72,0.00,,,0.00,weatherlink.com 1.10,2013-02-14 19:21:00,
2013-02-14 12:36:00,22.5,13.0,30.63,East,84,3.0,9.0,68,0.00,,,0.00,weatherlink.com 1.10,2013-02-14 19:36:00,
2013-02-14 12:51:00,24.1,14.0,30.63,East,101,0.0,7.0,66,0.00,,,0.00,weatherlink.com 1.10,2013-02-14 19:51:00,
2013-02-14 13:06:00,25.4,13.0,30.63,NNE,27,2.0,4.0,60,0.00,,,0.00,weatherlink.com 1.10,2013-02-14 20:06:00,
2013-02-14 13:21:00,24.7,13.0,30.62,NNE,33,2.0,4.0,61,0.00,,,0.00,weatherlink.com 1.10,2013-02-14 20:21:00,
2013-02-14 13:37:00,26.7,12.0,30.62,NNE,33,2.0,3.0,55,0.00,,,0.00,weatherlink.com 1.10,2013-02-14 20:37:00,
2013-02-14 13:51:00,26.3,13.0,30.61,SE,125,2.0,5.0,57,0.00,,,0.00,weatherlink.com 1.10,2013-02-14 20:51:00,
2013-02-14 14:07:00,27.6,13.0,30.61,ESE,116,1.0,4.0,55,0.00,,,0.00,weatherlink.com 1.10,2013-02-14 21:07:00,
2013-02-14 14:21:00,26.0,13.0,30.61,ESE,118,0.0,7.0,59,0.00,,,0.00,weatherlink.com 1.10,2013-02-14 21:21:00,
2013-02-14 14:36:00,24.8,14.0,30.61,ESE,116,8.0,8.0,64,0.00,,,0.00,weatherlink.com 1.10,2013-02-14 21:36:00,
2013-02-14 14:51:00,24.4,14.0,30.61,ESE,109,5.0,9.0,65,0.00,,,0.00,weatherlink.com 1.10,2013-02-14 21:51:00,
2013-02-14 15:06:00,24.8,14.0,30.62,ESE,107,3.0,9.0,64,0.00,,,0.00,weatherlink.com 1.10,2013-02-14 22:06:00,
2013-02-14 15:21:00,24.7,15.0,30.63,ESE,111,3.0,5.0,66,0.00,,,0.00,weatherlink.com 1.10,2013-02-14 22:21:00,
2013-02-14 15:36:00,26.4,15.0,30.62,SE,145,1.0,5.0,62,0.00,,,0.00,weatherlink.com 1.10,2013-02-14 22:36:00,
2013-02-14 15:51:00,27.3,15.0,30.63,SSE,155,3.0,3.0,59,0.00,,,0.00,weatherlink.com 1.10,2013-02-14 22:51:00,
2013-02-14 16:06:00,25.1,13.0,30.63,ESE,116,5.0,8.0,61,0.00,,,0.00,weatherlink.com 1.10,2013-02-14 23:06:00,
2013-02-14 16:21:00,24.5,13.0,30.63,ESE,108,2.0,7.0,63,0.00,,,0.00,weatherlink.com 1.10,2013-02-14 23:21:00,
2013-02-14 16:36:00,25.4,14.0,30.62,SSE,151,0.0,6.0,62,0.00,,,0.00,weatherlink.com 1.10,2013-02-14 23:36:00,
2013-02-14 16:51:00,25.1,14.0,30.62,SSW,195,1.0,5.0,63,0.00,,,0.00,weatherlink.com 1.10,2013-02-14 23:51:00,
2013-02-14 17:06:00,24.4,13.0,30.62,SSW,195,2.0,3.0,63,0.00,,,0.00,weatherlink.com 1.10,2013-02-15 00:06:00,
2013-02-14 17:22:00,21.9,12.0,30.63,SSW,195,2.0,3.0,67,0.00,,,0.00,weatherlink.com 1.10,2013-02-15 00:22:00,
2013-02-14 17:36:00,18.9,11.0,30.63,SSW,195,3.0,4.0,70,0.00,,,0.00,weatherlink.com 1.10,2013-02-15 00:36:00,
2013-02-14 17:52:00,17.0,10.0,30.64,SSW,208,3.0,4.0,74,0.00,,,0.00,weatherlink.com 1.10,2013-02-15 00:52:00,
2013-02-14 18:06:00,15.2,9.0,30.66,SSW,211,3.0,4.0,75,0.00,,,0.00,weatherlink.com 1.10,2013-02-15 01:06:00,
2013-02-14 18:21:00,15.1,9.0,30.68,SW,227,2.0,6.0,77,0.00,,,0.00,weatherlink.com 1.10,2013-02-15 01:21:00,
2013-02-14 18:36:00,16.1,10.0,30.68,SW,227,1.0,3.0,77,0.00,,,0.00,weatherlink.com 1.10,2013-02-15 01:36:00,
2013-02-14 18:51:00,17.5,11.0,30.69,SW,227,2.0,4.0,75,0.00,,,0.00,weatherlink.com 1.10,2013-02-15 01:51:00,
2013-02-14 19:07:00,17.7,11.0,30.69,SW,227,3.0,5.0,75,0.00,,,0.00,weatherlink.com 1.10,2013-02-15 02:07:00,
2013-02-14 19:22:00,17.8,11.0,30.68,SSW,208,3.0,8.0,74,0.00,,,0.00,weatherlink.com 1.10,2013-02-15 02:22:00,
2013-02-14 19:37:00,15.6,9.0,30.67,SSW,209,3.0,4.0,75,0.00,,,0.00,weatherlink.com 1.10,2013-02-15 02:37:00,
2013-02-14 19:52:00,14.3,8.0,30.67,SSW,209,0.0,3.0,76,0.00,,,0.00,weatherlink.com 1.10,2013-02-15 02:52:00,
2013-02-14 20:07:00,11.6,6.0,30.68,SSW,209,3.0,4.0,78,0.00,,,0.00,weatherlink.com 1.10,2013-02-15 03:07:00,
2013-02-14 20:22:00,11.4,6.0,30.68,SSW,209,1.0,5.0,80,0.00,,,0.00,weatherlink.com 1.10,2013-02-15 03:22:00,
2013-02-14 20:37:00,10.7,5.0,30.68,SW,227,4.0,5.0,79,0.00,,,0.00,weatherlink.com 1.10,2013-02-15 03:37:00,
2013-02-14 20:52:00,10.9,6.0,30.68,SW,230,3.0,6.0,79,0.00,,,0.00,weatherlink.com 1.10,2013-02-15 03:52:00,
2013-02-14 21:07:00,10.9,5.0,30.68,SW,231,1.0,4.0,77,0.00,,,0.00,weatherlink.com 1.10,2013-02-15 04:07:00,
2013-02-14 21:22:00,9.9,5.0,30.68,SW,231,3.0,5.0,80,0.00,,,0.00,weatherlink.com 1.10,2013-02-15 04:22:00,
2013-02-14 21:37:00,10.0,5.0,30.69,SW,231,4.0,5.0,79,0.00,,,0.00,weatherlink.com 1.10,2013-02-15 04:37:00,
2013-02-14 21:52:00,9.0,3.0,30.68,SW,231,2.0,5.0,78,0.00,,,0.00,weatherlink.com 1.10,2013-02-15 04:52:00,
2013-02-14 22:07:00,9.3,4.0,30.68,SW,231,3.0,5.0,79,0.00,,,0.00,weatherlink.com 1.10,2013-02-15 05:07:00,
2013-02-14 22:22:00,8.8,3.0,30.69,SW,231,1.0,5.0,76,0.00,,,0.00,weatherlink.com 1.10,2013-02-15 05:22:00,
2013-02-14 22:37:00,7.4,2.0,30.69,SW,231,4.0,5.0,78,0.00,,,0.00,weatherlink.com 1.10,2013-02-15 05:37:00,
2013-02-14 22:52:00,7.6,2.0,30.70,SW,233,4.0,5.0,79,0.00,,,0.00,weatherlink.com 1.10,2013-02-15 05:52:00,
2013-02-14 23:07:00,7.6,2.0,30.70,WSW,239,1.0,4.0,78,0.00,,,0.00,weatherlink.com 1.10,2013-02-15 06:07:00,
2013-02-14 23:22:00,6.7,1.0,30.70,West,270,3.0,5.0,78,0.00,,,0.00,weatherlink.com 1.10,2013-02-15 06:22:00,
2013-02-14 23:37:00,6.9,1.0,30.70,West,270,1.0,4.0,77,0.00,,,0.00,weatherlink.com 1.10,2013-02-15 06:37:00,
2013-02-14 23:52:00,7.7,2.0,30.71,West,270,2.0,4.0,77,0.00,,,0.00,weatherlink.com 1.10,2013-02-15 06:52:00,